This is the latest recevied weather packets stored in our database for station/object W0VI. If no packets are shown the sender has not sent any weather packets the latest 10 day(s).
| Time | Temp. | Humidity | Pressure | Rain* | Wind** | Luminosity | Snow |
|---|---|---|---|---|---|---|---|
| 1787618018 | 26.67° C | 63% | 1016 hPa | 0 mm | - | 23 W/m² | - |
| 1787617712 | 27.22° C | 63% | 1016 hPa | 0 mm | - | 28 W/m² | - |
| 1787617406 | 27.22° C | 61% | 1016 hPa | 0 mm | - | 32 W/m² | - |
| 1787617101 | 27.78° C | 60% | 1016 hPa | 0 mm | - | 38 W/m² | - |
| 1787616795 | 27.22° C | 60% | 1016.1 hPa | 0 mm | - | 43 W/m² | - |
| 1787616489 | 27.22° C | 60% | 1016.1 hPa | 0 mm | - | 49 W/m² | - |
| 1787616188 | 27.22° C | 60% | 1016.1 hPa | 0 mm | - | 55 W/m² | - |
| 1787615886 | 27.78° C | 61% | 1016 hPa | 0 mm | - | 59 W/m² | - |
| 1787615581 | 27.78° C | 61% | 1016.3 hPa | 0 mm | - | 69 W/m² | - |
| 1787615272 | 27.78° C | 60% | 1016 hPa | 0 mm | - | 83 W/m² | - |
| 1787614968 | 27.78° C | 60% | 1016.2 hPa | 0 mm | - | 90 W/m² | - |
| 1787614664 | 27.78° C | 58% | 1015.8 hPa | 0 mm | - | 99 W/m² | - |
| 1787614360 | 27.78° C | 59% | 1016.1 hPa | 0 mm | - | 101 W/m² | - |
| 1787614058 | 27.78° C | 58% | 1015.9 hPa | 0 mm | - | 119 W/m² | - |
| 1787613754 | 27.78° C | 59% | 1015.9 hPa | 0 mm | - | 131 W/m² | - |
| 1787613453 | 27.78° C | 60% | 1016 hPa | 0 mm | - | 139 W/m² | - |
| 1787613149 | 27.78° C | 58% | 1016.1 hPa | 0 mm | - | 143 W/m² | - |
| 1787612845 | 27.22° C | 60% | 1016.1 hPa | 0 mm | - | 161 W/m² | - |
| 1787612541 | 27.22° C | 62% | 1016 hPa | 0 mm | - | 79 W/m² | - |
| 1787612237 | 27.22° C | 61% | 1016 hPa | 0 mm | - | 82 W/m² | - |
| 1787611933 | 28.33° C | 58% | 1016.2 hPa | 0 mm | - | 89 W/m² | - |
| 1787611629 | 27.78° C | 57% | 1016 hPa | 0 mm | - | 97 W/m² | - |
| 1787611325 | 27.78° C | 58% | 1016.3 hPa | 0 mm | - | 210 W/m² | - |
| 1787611020 | 27.78° C | 58% | 1016.2 hPa | 0 mm | - | 211 W/m² | - |
| 1787610716 | 27.78° C | 59% | 1016.1 hPa | 0 mm | - | 236 W/m² | - |
* Rain latest hour (hover to see other rain measurements)
** Current wind speed in m/s (hover to see current wind gust speed)